Wind_Speed
8 9 9 11 12 12 11 11 11 8 9 12 10 8 7 6 7 8 8 7 7 11 16 17 18 20 23 26 28 28 29 28 24 26 28 26 25 26 26 26 27 27 27 26 26 25 24 23 22 22 21 20 20 19 18 17 16 14 12 12 10 9 8 8 8 8 8 9 9 10 10 11 11 11 11 11 11 12 12 13 14 14 15 15 15
9 10 10 11 12 12 13 14 12 9 10 13 13 11 9 8 10 9 7 7 9 11 14 16 18 18 19 22 25 26 27 27 24 22 24 24 24 25 24 25 25 25 26 26 25 25 24 23 22 22 21 21 20 19 19 18 17 15 13 13 12 10 9 9 9 9 9 9 9 9 10 10 10 11 11 11 11 11 11 12 12 13 14 14 15
10 10 10 11 12 12 13 15 14 13 13 14 14 13 10 10 11 9 7 8 10 12 14 16 19 19 17 18 22 25 25 26 25 21 22 23 22 24 24 24 24 24 25 25 25 24 23 23 22 22 21 21 20 20 19 18 18 16 14 14 13 12 11 11 11 11 11 10 10 10 10 10 11 11 11 12 12 12 12 12 12 12 13 13 14
11 10 10 11 12 12 12 14 16 16 15 15 16 14 12 11 11 9 7 7 8 10 12 15 19 20 18 17 19 24 25 26 25 22 23 23 22 23 23 24 24 23 23 24 24 24 23 23 22 22 21 21 20 20 19 18 18 17 15 14 14 13 12 12 12 12 12 12 12 12 12 12 12 12 12 12 12 12 12 12 12 12 12 13 13
11 11 12 12 12 13 13 15 17 16 16 16 16 15 13 13 12 9 8 8 7 9 10 12 18 20 20 18 17 20 24 26 26 24 24 24 23 23 22 23 23 22 22 23 24 24 23 23 22 22 21 21 20 20 19 19 18 18 17 15 15 15 14 14 13 14 14 14 14 14 14 14 13 13 13 13 13 13 13 12 12 12 12 13 13
12 13 12 12 14 15 14 16 17 17 17 16 15 16 15 14 12 10 10 9 10 11 10 10 16 21 21 19 16 17 22 25 26 26 24 23 23 24 23 22 21 22 22 22 23 23 23 22 22 22 22 21 21 20 20 19 19 18 18 17 16 16 16 16 15 15 15 15 16 16 16 16 15 14 13 13 13 13 13 13 13 13 13 13 13
15 15 13 11 13 15 16 17 18 18 16 13 13 15 16 16 14 14 14 13 12 13 11 9 15 21 21 20 18 18 20 22 22 23 25 24 24 24 24 22 22 22 22 21 21 21 22 23 22 22 22 22 21 21 20 20 20 19 18 18 18 17 17 17 17 17 17 17 18 18 19 18 17 16 14 14 14 14 14 13 13 13 13 13 13
17 16 14 12 13 14 17 19 17 14 9 6 9 13 16 17 17 17 16 14 12 12 12 11 14 21 23 21 21 19 18 20 21 21 22 23 24 25 24 23 23 23 23 22 20 19 21 22 23 23 22 22 22 22 21 21 20 20 19 19 19 19 19 19 19 19 19 19 20 20 20 20 19 18 17 15 15 15 14 14 14 14 14 14 14
18 18 17 15 15 15 18 19 14 8 5 5 9 12 15 16 16 16 16 15 13 12 12 13 14 19 21 19 19 17 15 17 20 23 22 21 21 22 23 23 23 23 23 22 20 20 20 21 22 22 23 23 23 23 22 22 22 21 21 20 20 20 20 20 20 20 21 22 22 22 22 21 20 20 19 17 16 16 15 15 15 15 15 15 15
15 18 19 18 17 18 18 16 11 8 8 10 10 12 13 14 14 15 15 14 15 14 12 13 14 16 18 18 17 16 15 16 18 21 24 24 22 21 22 22 22 23 23 22 21 22 22 21 22 22 22 23 23 24 23 23 23 23 23 22 22 22 22 22 22 22 23 23 24 24 23 22 21 21 19 18 17 16 16 16 16 16 17 16 16
13 16 18 19 19 19 17 13 10 9 10 11 12 13 13 13 14 14 13 14 15 15 14 14 13 13 17 19 18 16 16 16 18 21 23 25 26 26 23 20 20 22 22 22 22 23 24 24 23 22 22 23 23 24 24 25 25 25 25 24 24 24 24 24 24 24 25 25 25 25 24 23 22 20 19 18 17 17 17 17 17 17 18 18 18
14 15 17 18 19 19 16 12 11 12 10 9 10 11 12 13 13 13 14 15 14 15 16 14 11 9 14 19 18 17 17 15 16 19 22 23 25 27 26 23 22 20 19 20 20 22 24 24 24 24 24 24 24 25 25 25 26 26 27 27 27 26 26 26 26 27 27 27 26 25 24 22 21 20 19 18 17 17 17 17 17 18 18 18 19
16 15 16 17 18 19 17 12 12 13 11 11 10 9 10 11 11 12 14 14 14 15 16 14 11 9 11 14 13 13 17 18 16 17 20 20 22 23 24 25 25 23 21 21 20 20 22 23 23 23 24 25 25 25 26 26 26 26 26 27 28 29 29 29 28 28 28 27 25 24 23 21 20 19 19 19 19 18 18 18 18 18 19 19 20
15 15 16 17 17 19 18 14 14 14 13 13 13 12 11 11 12 13 14 14 13 13 13 13 13 12 12 12 10 9 12 16 18 18 18 18 19 20 20 21 23 25 24 24 23 21 21 22 21 21 23 24 24 25 25 25 25 25 25 25 26 27 28 28 28 28 27 26 24 23 22 21 21 20 21 20 20 20 20 20 20 20 20 20 21
12 12 13 14 15 17 17 15 15 15 14 13 13 13 14 14 15 15 14 13 12 11 11 12 13 14 15 15 12 10 10 13 17 19 20 20 20 19 18 18 19 21 22 23 23 22 21 22 22 22 22 22 24 25 24 25 24 24 24 23 23 24 25 25 25 25 25 25 24 23 22 22 21 22 22 22 21 21 21 21 21 21 21 21 21
8 9 9 9 10 11 12 12 12 13 14 14 12 12 13 14 14 14 13 12 11 11 11 12 12 13 15 15 14 13 13 14 15 17 18 20 21 21 21 20 19 20 21 21 21 21 21 23 23 22 22 22 24 24 23 23 24 24 23 22 22 22 22 23 24 24 24 23 23 23 22 22 21 21 21 22 22 21 21 21 21 21 21 21 21
6 6 6 6 6 7 7 7 8 9 11 13 13 14 14 13 12 11 11 12 12 12 12 11 10 11 13 14 14 15 16 15 15 15 15 16 18 21 23 24 22 21 21 22 21 22 22 22 22 21 21 22 22 22 24 23 23 23 23 20 19 20 20 20 20 20 20 20 20 19 20 20 20 20 20 20 20 20 20 20 20 20 20 20 20
4 5 4 4 4 5 5 5 5 6 8 10 12 14 15 14 12 11 10 10 10 12 13 12 10 9 10 12 13 15 16 16 16 15 13 12 12 15 21 25 25 22 21 22 21 22 22 21 22 22 23 22 19 19 23 24 22 22 21 20 19 19 18 18 17 17 16 16 17 17 17 17 17 18 18 18 17 17 17 17 17 17 17 18 19
6 5 4 4 3 3 3 3 4 5 7 8 8 9 10 11 11 11 11 10 8 10 12 13 11 9 9 10 11 12 14 14 15 14 11 9 9 9 14 20 23 24 22 21 19 19 20 20 21 23 23 21 18 18 21 23 23 21 18 18 20 20 20 19 18 17 16 16 16 16 16 16 16 15 16 15 15 15 15 14 14 14 15 15 16
7 7 6 5 4 3 2 2 3 4 5 5 5 6 6 7 10 11 11 10 9 8 9 10 9 8 8 7 8 9 10 10 12 12 11 10 9 9 11 14 18 22 23 22 20 19 20 19 20 21 20 19 18 19 20 21 21 19 15 16 19 20 21 20 18 17 17 16 16 15 16 16 15 15 15 14 14 13 13 13 12 13 13 14 15
7 7 6 6 5 4 3 2 2 2 3 3 3 3 3 5 8 11 11 11 11 10 9 9 8 8 8 7 8 9 9 10 11 13 13 12 11 11 11 11 13 18 21 22 22 23 23 24 24 23 21 20 19 19 19 20 19 16 14 16 18 18 20 20 19 18 18 18 17 17 17 16 16 15 15 15 14 13 12 12 11 11 12 13 14
5 4 4 5 5 5 4 4 3 2 2 2 1 1 2 3 5 7 8 10 12 12 11 11 10 11 11 10 10 10 11 12 13 13 14 13 13 13 13 12 12 14 16 18 20 21 23 26 28 26 22 20 19 18 18 20 20 17 15 17 18 19 19 20 21 21 21 20 20 20 19 18 17 16 16 15 15 14 12 11 9 9 10 11 12
3 3 2 2 2 3 4 4 4 3 3 2 2 1 0 1 2 3 4 6 8 9 10 10 11 13 14 14 13 13 13 14 14 14 15 15 15 16 15 15 15 15 15 17 18 17 17 21 25 25 23 21 20 19 19 21 21 20 18 18 19 21 21 21 22 23 23 23 23 23 22 21 19 18 17 16 16 15 13 11 10 9 10 11 12
2 2 2 2 2 1 2 2 3 3 3 3 2 2 1 1 0 0 1 2 3 5 5 6 6 8 10 11 11 11 12 14 14 15 15 15 15 15 15 16 16 15 16 16 16 15 16 17 19 21 21 20 21 22 23 23 22 21 21 20 19 20 20 21 23 24 25 26 26 26 24 23 22 21 20 18 17 16 15 13 12 11 11 11 12
2 3 4 4 4 3 3 2 1 1 2 2 2 2 1 1 1 0 1 1 2 3 4 4 3 4 5 6 7 7 8 9 10 12 12 12 12 12 12 12 12 12 12 13 13 12 13 14 15 16 17 16 18 21 23 23 20 20 22 21 21 21 21 23 25 26 27 27 27 27 26 26 24 23 22 21 20 18 17 16 15 13 12 12 12
4 4 5 5 5 5 5 4 3 3 2 1 1 1 1 1 1 1 1 1 2 3 4 4 4 4 4 5 6 6 7 7 8 9 9 10 10 10 10 10 9 9 8 10 10 6 6 7 6 6 8 10 14 18 22 22 20 19 20 21 22 22 22 23 24 25 26 26 27 27 27 28 27 26 25 23 22 20 19 19 17 15 14 14 14
5 5 6 7 7 7 7 7 6 5 4 3 3 2 2 2 1 1 0 0 1 2 3 4 4 5 5 5 6 7 8 9 9 10 10 10 11 11 12 11 11 10 9 9 9 6 7 7 5 4 7 12 16 20 23 22 19 18 20 20 21 22 22 23 24 25 25 26 26 27 27 28 28 29 28 26 24 23 22 21 20 18 17 17 17
3 4 5 6 7 8 9 9 8 8 7 6 5 4 4 3 3 2 2 2 1 0 0 1 2 3 3 4 4 6 7 8 9 10 11 11 12 12 13 13 13 13 13 12 12 11 12 11 10 11 14 18 20 20 20 20 18 18 19 19 20 22 22 23 25 25 25 25 25 25 26 27 26 27 27 27 26 26 25 24 23 21 20 20 20
1 1 2 3 5 6 7 8 8 9 9 9 8 8 7 6 6 5 5 4 3 3 2 2 2 2 3 3 3 3 4 5 7 8 9 9 10 10 11 12 12 12 13 13 13 14 15 15 15 16 18 20 20 18 18 19 19 20 20 20 21 21 22 23 23 23 23 23 23 24 25 25 25 25 25 26 26 26 27 27 26 25 23 23 23
4 3 2 1 0 1 3 4 5 6 6 7 8 8 8 8 8 8 8 7 7 6 5 5 4 3 3 3 3 3 3 4 4 5 6 7 8 8 9 9 9 10 10 9 10 11 13 14 16 17 19 20 21 20 19 19 20 21 22 22 22 22 23 24 24 23 23 23 24 25 25 25 25 25 24 24 24 25 26 27 28 27 26 25 25
8 7 6 5 4 3 3 2 2 3 3 4 5 5 6 7 7 7 7 8 8 8 7 7 6 6 5 5 4 4 4 4 4 4 5 6 7 8 8 8 8 9 9 8 8 9 11 12 13 14 16 17 18 19 18 18 19 20 20 20 21 21 22 23 23 23 23 23 24 24 25 25 25 25 25 25 24 24 24 25 26 26 25 25 25
14 11 10 9 8 7 7 6 5 5 5 5 5 5 5 6 6 7 7 7 8 8 8 8 8 8 8 8 7 7 6 5 5 5 6 7 8 9 9 9 10 10 10 10 9 10 11 12 12 13 15 16 17 17 17 17 18 19 20 20 20 21 21 21 22 22 22 21 21 22 23 24 25 25 25 25 25 25 25 25 25 25 25 24 24
17 16 14 13 11 11 10 10 9 8 8 8 8 8 8 8 8 7 7 7 7 8 8 9 9 9 9 9 9 9 9 8 8 8 8 8 9 10 10 11 12 12 13 13 13 12 13 14 15 15 16 17 17 17 17 17 17 18 19 19 20 20 21 21 22 22 22 21 21 21 22 23 23 24 24 24 25 25 26 26 26 26 26 25 25
19 19 18 16 15 14 13 13 13 12 12 11 11 11 11 11 10 9 9 9 8 9 9 10 10 11 12 11 10 10 10 10 11 11 11 11 11 11 12 13 14 15 15 16 17 16 15 16 17 17 18 19 19 19 19 19 19 19 19 19 20 20 21 22 22 23 23 22 22 22 23 23 23 23 23 24 25 25 25 25 26 26 26 26 26
23 22 20 19 18 18 16 15 16 16 15 15 14 14 14 14 13 12 12 11 11 12 12 13 13 14 15 15 14 13 12 12 12 12 13 13 13 14 14 15 16 17 18 19 19 20 19 18 18 19 19 20 21 21 21 21 21 21 21 21 21 21 21 22 23 23 23 24 24 24 24 24 24 23 23 23 24 25 25 25 25 26 27 27 27
26 25 24 22 21 21 20 19 18 18 18 17 17 16 17 16 15 14 14 14 14 15 15 17 17 17 17 18 17 16 15 15 15 15 15 15 15 16 16 17 18 18 20 20 21 22 22 21 21 21 21 21 22 22 22 23 23 23 23 23 23 23 22 22 23 23 23 24 25 25 25 24 24 24 23 23 24 26 26 26 26 26 26 27 27
28 27 25 24 24 24 23 22 22 21 21 20 19 18 17 18 17 16 16 16 16 17 18 19 20 20 21 21 20 19 18 18 18 19 19 19 19 19 19 19 19 19 20 21 22 23 24 24 24 24 23 23 24 24 24 25 25 25 25 26 26 26 25 25 24 24 24 24 26 27 27 26 25 25 24 24 24 25 27 27 28 27 26 26 27
32 29 25 25 27 27 28 27 26 25 25 24 24 22 19 18 18 17 17 17 17 18 19 20 20 21 22 23 23 22 22 23 23 23 24 23 23 23 22 22 21 21 21 21 22 23 24 25 26 26 26 27 27 26 27 28 28 28 29 29 28 28 28 28 27 26 26 26 26 27 28 28 28 28 27 26 26 26 26 27 28 28 28 28 27
32 28 24 26 28 28 29 29 27 28 28 27 27 27 25 22 19 17 18 19 20 20 21 21 22 21 23 24 25 25 25 25 27 27 27 27 27 26 26 25 25 25 24 24 24 24 25 26 26 27 28 28 29 29 29 30 31 31 32 32 32 31 31 30 29 28 28 28 27 27 28 29 30 30 29 29 28 27 27 27 28 28 28 29 29
28 25 24 26 27 28 30 29 27 29 30 29 29 28 27 26 24 21 21 22 23 25 24 24 25 25 25 26 27 27 27 26 28 29 30 31 31 30 30 29 29 28 28 28 28 28 28 28 28 29 29 30 30 30 32 33 34 34 34 34 35 34 34 34 33 32 31 31 30 29 29 30 30 30 31 30 29 28 28 27 27 28 28 29 29
26 26 25 24 24 26 28 28 27 29 29 30 32 31 29 28 28 28 27 25 26 29 30 29 29 29 29 30 31 30 29 29 29 30 31 33 33 33 32 32 32 32 32 32 32 32 32 32 32 32 33 33 32 33 33 35 36 37 37 37 37 36 36 36 36 35 35 36 35 34 32 32 31 31 32 32 31 30 30 29 28 28 28 28 29
24 25 25 25 24 25 26 26 26 26 27 29 31 31 29 29 31 34 33 30 31 33 34 33 33 32 32 33 33 32 32 32 33 33 33 34 35 34 34 34 35 35 35 35 35 35 36 36 36 36 37 36 36 36 37 36 37 38 38 40 40 39 39 39 38 37 37 38 39 38 37 35 34 34 33 33 32 32 32 31 30 29 29 29 29
24 25 26 27 27 27 27 26 25 25 26 28 28 27 27 29 33 36 36 34 34 36 36 36 35 34 33 33 33 33 34 35 36 36 36 36 36 36 36 37 38 38 37 36 36 36 37 38 38 38 38 38 38 38 39 38 39 40 40 40 41 41 41 42 41 39 37 38 40 41 40 37 37 37 36 34 34 34 34 34 33 32 32 31 30
27 28 28 29 29 29 29 29 29 29 30 30 29 27 27 29 32 34 34 34 34 35 36 36 35 35 34 33 33 35 36 37 38 39 39 38 38 38 39 40 40 38 37 36 36 36 36 37 38 38 39 40 40 40 39 39 40 41 41 40 41 42 42 43 43 42 39 39 41 42 41 39 38 38 37 36 36 36 36 36 36 36 36 35 33
30 30 30 31 31 30 31 32 33 34 34 33 32 31 29 29 30 31 32 34 34 35 36 36 36 35 34 34 35 37 38 38 39 41 42 42 41 41 42 42 41 39 38 38 37 37 37 38 39 39 38 39 41 40 39 39 41 41 41 40 41 42 43 43 44 43 41 41 43 44 44 41 39 39 38 37 36 36 36 37 37 38 38 38 37
30 31 31 31 31 30 31 32 33 35 36 35 34 33 31 30 31 30 32 35 36 36 37 36 35 33 33 35 37 38 39 40 41 43 44 45 44 44 44 44 43 41 40 39 39 38 38 39 40 40 39 39 40 40 39 39 40 40 41 41 41 42 43 43 43 43 42 42 44 47 47 44 41 41 41 39 37 36 37 37 37 38 39 38 38
29 29 29 29 29 29 29 30 31 33 35 34 32 31 30 30 31 31 33 36 38 38 37 36 34 33 34 36 37 38 39 40 42 43 43 44 44 43 44 44 43 42 41 40 40 39 40 40 41 41 40 39 39 40 40 39 39 40 40 41 42 43 43 43 43 43 43 42 43 46 49 47 44 44 43 41 39 38 37 37 38 39 40 39 39
27 27 27 28 28 28 28 28 30 32 33 32 30 29 29 30 29 30 33 36 38 38 36 35 35 36 36 37 37 38 38 40 41 41 41 41 40 40 41 42 42 43 42 41 40 40 41 42 42 41 41 40 39 39 40 40 40 40 41 41 42 43 43 44 44 43 43 42 42 44 48 48 46 45 44 41 40 39 38 38 38 39 40 41 41
27 27 28 28 29 30 30 30 31 32 32 30 29 28 28 28 28 30 33 35 35 36 36 36 36 37 38 38 38 38 39 39 39 39 39 39 38 38 40 41 42 43 42 41 40 40 41 42 42 42 42 41 40 40 40 40 41 41 41 42 42 42 43 44 44 44 43 43 42 43 46 47 46 45 45 42 41 40 39 38 38 40 41 42 42
26 27 27 28 29 31 32 33 34 34 32 31 30 29 29 29 30 32 33 34 34 35 36 37 37 38 38 38 38 39 39 38 38 38 38 38 38 38 39 40 42 42 41 41 41 41 42 42 42 43 43 43 43 42 41 41 41 42 42 42 42 43 43 43 44 44 44 44 43 43 45 45 45 45 46 44 42 41 41 40 39 40 42 42 43
27 28 28 29 30 31 32 32 32 33 32 31 31 30 30 31 32 33 33 33 33 34 35 37 38 38 38 37 37 38 38 37 37 37 37 37 37 38 39 41 42 42 42 42 43 44 44 44 44 44 44 44 44 44 44 43 42 42 42 42 42 42 43 43 44 44 45 44 44 44 45 45 45 45 45 45 44 43 42 42 41 42 43 43 43
Wind_Direction
235 233 223 224 236 248 258 261 258 262 270 265 251 240 239 236 233 234 246 260 250 234 228 230 231 226 222 219 216 217 217 212 213 226 232 234 237 238 238 239 238 238 237 239 243 246 248 251 254 258 260 263 266 269 271 272 271 269 267 266 266 270 284 299 312 324 336 346 352 356 358 1 4 7 11 12 12 12 12 11 12 13 15 17 21
239 237 236 235 234 241 252 255 257 255 251 254 250 242 239 239 238 232 232 245 247 243 238 233 232 230 226 224 220 220 221 216 212 222 230 231 236 240 240 241 242 241 239 238 241 244 246 249 252 255 258 260 263 265 267 268 266 264 262 260 261 263 274 287 300 312 323 334 342 346 348 350 353 357 2 6 8 8 8 8 7 8 8 10 13
241 238 240 243 234 235 247 250 250 244 235 239 244 239 232 233 235 232 229 240 247 249 248 240 234 230 229 227 223 221 222 220 218 222 230 228 231 238 240 242 244 245 243 241 240 242 244 247 249 252 255 257 259 261 262 263 263 262 259 257 258 259 267 278 289 300 309 318 326 331 333 336 340 343 347 351 356 360 3 4 4 5 4 5 5
244 236 234 242 238 235 243 248 244 240 237 238 239 234 229 233 231 227 222 228 250 261 257 247 236 228 227 228 224 222 220 221 222 224 232 231 228 234 239 241 244 246 247 245 242 242 243 244 247 249 251 253 255 257 257 258 259 260 259 256 257 259 263 271 280 290 298 305 311 316 318 321 324 328 332 336 340 345 351 356 358 0 1 2 1
254 244 236 239 242 237 234 240 242 239 237 237 238 234 228 229 229 225 216 220 254 274 266 250 237 227 225 225 224 225 223 223 224 226 234 238 232 230 236 241 243 245 247 247 245 243 243 244 245 247 249 251 251 252 252 252 253 255 257 256 256 258 262 267 273 282 290 296 301 306 310 311 312 314 318 322 328 332 337 342 347 352 355 358 358
260 254 243 236 241 245 240 240 242 239 237 236 238 237 231 227 231 235 232 242 263 266 262 252 237 229 224 221 221 227 227 226 228 230 234 240 239 232 232 239 245 248 248 248 248 246 245 245 246 247 247 248 249 249 249 248 249 250 253 255 256 257 261 265 269 276 283 288 294 299 303 306 307 306 306 308 314 319 324 329 334 339 344 349 352
258 257 252 243 245 250 250 248 242 240 243 248 251 243 235 232 234 241 247 257 266 260 256 251 235 229 224 219 221 225 226 225 225 230 236 240 244 241 236 236 241 247 250 250 249 249 249 248 247 247 247 247 247 247 247 247 246 247 249 253 256 258 261 264 268 273 277 282 288 293 298 301 302 303 300 297 298 303 311 316 321 327 331 336 342
253 257 258 254 253 251 251 251 243 239 248 259 253 238 231 234 237 244 253 256 257 253 246 242 228 224 223 221 226 230 228 225 219 220 230 235 240 244 244 242 242 246 250 251 251 251 252 251 249 248 247 247 247 247 247 247 246 247 248 251 255 258 260 263 266 271 275 279 284 289 293 296 298 300 299 293 289 290 296 303 309 314 319 323 328
251 257 257 251 253 254 254 258 259 268 284 266 249 235 229 235 240 246 254 255 251 244 236 235 228 223 223 222 228 233 230 229 225 221 224 228 234 241 245 247 250 251 250 250 250 252 253 253 251 250 249 248 248 248 248 248 248 248 249 251 253 257 260 263 265 268 273 277 282 286 289 292 295 296 297 293 287 284 286 292 298 303 308 312 316
246 254 255 250 252 256 258 268 285 293 273 255 251 245 237 239 243 245 250 252 251 251 244 236 231 222 217 216 219 224 222 223 226 227 228 231 234 240 245 249 252 255 256 254 251 250 252 255 254 253 252 252 251 250 250 251 252 252 253 254 256 257 260 263 265 268 271 275 279 283 286 288 291 293 293 292 288 284 283 285 289 294 299 304 309
245 249 252 250 252 256 262 271 278 274 260 248 245 244 243 242 243 244 245 245 246 253 254 243 234 218 208 212 215 218 222 221 221 222 228 234 235 238 243 244 245 249 256 260 259 255 253 255 257 257 256 256 254 253 253 253 254 256 257 258 259 261 262 265 267 269 271 274 277 280 284 286 288 289 289 290 289 287 286 286 287 290 294 299 304
251 251 252 253 253 254 260 267 260 256 253 243 243 247 247 244 244 246 244 242 242 248 253 251 247 233 220 224 222 215 219 225 225 223 225 231 236 239 242 243 241 243 247 253 258 261 260 259 259 260 259 258 258 259 258 257 257 258 260 261 262 263 264 265 267 269 271 272 275 278 281 283 284 285 286 288 289 289 289 289 289 291 293 296 300
255 257 257 256 257 255 254 259 259 258 255 251 254 256 251 246 244 245 245 244 245 247 253 255 255 258 249 244 238 224 222 224 226 229 228 229 233 236 241 244 245 245 243 244 249 256 262 263 262 262 261 261 263 264 263 261 260 261 262 261 262 262 263 264 266 268 270 271 273 275 278 279 281 283 285 287 288 289 290 290 291 292 293 295 297
259 259 258 256 259 260 257 256 257 260 261 259 259 255 252 253 250 249 246 242 243 247 252 254 252 256 257 255 254 243 233 225 223 228 230 231 233 233 236 241 245 247 246 245 247 250 255 258 259 260 261 261 262 265 265 265 265 265 264 263 263 262 263 265 267 269 270 271 271 272 274 276 279 283 285 287 289 290 291 291 292 293 293 294 295
264 262 260 258 257 261 261 258 256 259 262 264 264 259 254 253 253 253 250 242 243 246 249 252 252 251 251 252 253 248 241 232 228 230 232 233 235 236 236 238 240 244 244 243 246 248 250 253 256 258 261 261 261 261 263 267 269 268 266 266 266 266 267 268 269 270 271 272 273 273 274 277 280 284 287 289 290 291 291 292 293 293 294 294 294
270 268 266 262 260 260 263 261 256 254 257 258 258 256 252 248 250 255 257 253 252 250 250 254 252 248 247 248 250 245 242 240 238 240 242 242 242 240 239 239 238 239 239 238 242 246 247 249 251 254 258 258 258 261 264 267 270 269 266 267 268 268 269 270 270 271 272 273 276 277 278 280 282 284 286 288 288 289 290 291 293 293 294 294 294
269 269 266 265 263 260 261 259 252 247 248 252 250 247 247 244 244 251 257 254 249 246 248 250 246 243 244 245 245 243 243 242 237 235 241 248 250 246 241 240 241 242 242 239 239 242 244 246 248 250 250 250 254 259 262 262 264 265 264 263 265 268 269 269 270 271 273 276 279 280 280 280 281 282 283 284 285 288 290 291 292 293 294 294 294
278 276 276 272 265 263 264 254 248 244 243 249 249 245 245 247 246 243 247 249 244 241 241 243 243 240 242 243 243 244 243 239 234 234 239 247 252 251 246 242 239 240 244 243 240 242 245 245 248 250 250 252 254 256 258 258 257 257 258 260 261 263 263 264 266 268 272 277 279 280 278 278 280 281 282 283 285 288 290 292 293 294 295 295 293
286 284 281 280 275 270 273 257 240 232 236 244 247 248 249 251 248 238 238 241 236 235 236 240 241 234 235 240 240 242 245 240 239 244 250 257 263 262 256 250 243 239 240 242 240 244 248 248 249 251 252 254 255 254 253 253 252 249 252 262 266 264 263 262 264 267 270 273 275 277 278 279 281 283 284 284 286 287 289 292 293 295 295 293 291
284 281 275 273 273 267 272 263 242 231 238 246 247 250 246 239 238 235 233 228 221 224 227 233 237 233 231 230 225 230 239 239 239 245 252 260 271 271 265 263 255 247 242 243 243 245 249 249 248 250 253 254 251 250 248 247 253 252 250 263 269 270 271 268 266 269 270 270 270 273 277 280 282 283 284 284 283 284 286 289 290 291 293 293 291
289 283 274 269 266 266 271 272 270 252 244 245 237 240 230 219 228 234 231 226 225 226 225 226 232 236 234 224 223 229 235 235 235 240 247 255 263 262 258 260 259 253 248 247 250 252 254 255 254 253 255 255 251 250 249 252 262 264 259 263 266 268 272 272 272 271 271 271 271 272 275 279 282 281 281 281 280 280 283 287 289 289 293 295 294
309 300 289 279 268 265 269 273 281 282 268 262 245 240 230 216 224 232 233 234 238 239 238 237 237 239 242 241 243 245 244 242 241 244 250 258 260 256 254 254 253 252 250 249 252 256 257 256 256 253 251 253 254 256 259 263 271 276 274 270 267 266 268 271 273 273 272 274 274 273 274 275 277 275 275 277 278 280 280 282 286 288 290 293 293
340 343 331 311 290 276 270 273 278 283 290 298 302 305 255 210 220 233 237 238 245 249 247 244 242 243 247 249 249 250 251 254 257 260 261 263 264 263 263 261 256 250 246 245 250 258 261 257 255 253 250 252 254 253 255 259 265 273 275 271 268 269 268 267 271 272 272 274 274 273 273 273 273 272 270 271 274 277 277 276 281 285 285 287 287
13 31 34 32 20 351 304 286 283 286 292 296 297 302 322 357 11 277 284 264 260 264 261 254 246 245 249 252 252 251 254 259 264 267 268 269 270 270 269 268 267 264 258 254 252 254 257 256 255 255 254 258 259 255 250 249 254 263 269 269 266 265 263 261 264 267 270 272 273 273 274 273 273 273 272 269 269 271 272 273 278 280 278 278 278
39 54 56 54 52 49 43 20 351 328 313 306 301 300 298 303 304 286 300 300 300 297 298 298 286 269 264 266 266 263 261 263 266 270 274 277 277 277 276 274 276 274 269 267 260 251 251 254 255 256 256 257 262 262 257 252 253 258 263 266 265 262 259 257 260 265 270 273 274 275 275 274 273 273 273 272 269 267 268 272 276 275 271 271 271
53 53 52 53 52 51 54 53 49 45 32 16 353 339 325 309 285 261 232 246 274 284 292 296 296 294 285 279 280 277 275 272 271 273 275 276 278 280 282 282 280 275 268 268 266 251 240 248 253 266 268 254 249 255 258 256 253 253 255 259 261 262 263 265 266 269 272 274 276 276 277 276 275 273 272 272 269 266 266 269 272 270 266 264 264
64 59 53 53 53 53 54 57 59 60 57 53 41 34 24 16 17 7 16 210 243 258 273 280 282 281 279 277 275 273 274 274 273 273 273 273 274 275 277 278 278 277 273 270 270 254 232 227 206 202 234 238 235 241 252 258 259 259 260 261 262 263 265 267 269 270 271 273 274 276 277 277 276 274 273 271 268 266 266 266 266 266 265 263 262
76 68 63 60 57 58 57 56 59 60 61 62 56 51 47 41 45 54 63 78 93 119 277 287 288 288 285 279 272 271 274 274 272 272 271 271 271 271 272 273 273 274 274 272 272 267 262 256 240 229 235 242 246 250 259 270 273 270 269 268 267 267 266 267 268 271 273 274 274 275 276 278 277 275 273 271 268 265 265 265 264 263 263 264 265
156 90 74 68 57 58 59 57 57 57 57 60 60 58 56 55 56 58 60 63 65 67 60 35 359 342 333 319 302 290 285 284 283 281 280 279 277 275 275 275 274 274 274 273 272 270 269 267 261 257 260 266 272 276 278 281 280 277 275 273 271 271 271 270 270 272 275 276 276 276 277 279 279 278 277 274 270 266 264 265 266 265 264 263 264
217 218 233 232 5 30 45 47 46 47 47 46 48 48 47 47 49 51 53 53 52 52 51 46 35 24 10 358 349 337 325 313 304 296 292 291 288 286 284 283 282 279 277 274 270 267 265 266 268 270 273 277 282 284 283 282 281 279 278 276 276 275 275 274 274 274 274 274 275 275 277 279 280 281 281 279 277 273 270 269 269 269 268 266 265
255 238 238 242 243 251 262 288 328 350 6 11 17 21 21 22 24 26 29 32 35 36 38 39 37 33 27 20 16 7 357 343 330 318 305 297 293 288 284 282 280 278 278 273 266 265 264 260 262 266 270 272 277 281 283 283 282 281 280 280 279 278 278 278 278 277 276 274 273 274 275 276 276 278 279 280 280 279 277 275 275 274 274 273 270
270 260 253 252 252 254 257 258 267 282 295 308 318 326 333 339 344 349 354 359 4 7 11 14 15 16 16 12 8 4 0 353 341 329 317 308 300 294 287 284 280 276 276 273 266 267 269 265 259 259 264 267 271 275 278 279 280 280 281 281 280 280 280 280 279 278 277 276 275 274 274 274 274 275 276 277 277 278 278 278 278 278 277 277 275
269 269 265 262 262 264 266 267 266 267 273 280 287 295 300 305 311 316 321 327 334 340 346 351 351 351 353 355 354 351 349 345 340 333 324 312 300 291 285 280 279 277 275 275 271 266 266 268 266 263 264 265 265 267 269 271 273 274 276 278 279 280 280 280 280 281 281 280 278 276 275 275 275 276 276 276 276 276 277 278 278 278 277 277 276
264 266 267 268 269 267 267 271 273 273 272 274 278 283 287 290 293 299 305 306 308 315 323 329 333 334 333 332 332 332 331 331 330 328 325 319 311 304 297 291 288 286 283 281 280 275 271 270 269 267 267 266 265 265 265 265 265 266 268 270 273 276 279 280 280 281 281 281 280 279 278 278 277 278 278 278 278 277 277 277 277 278 278 277 276
262 263 265 268 269 270 271 271 272 274 274 274 274 275 277 281 284 289 295 299 304 309 315 318 320 323 321 319 318 317 316 316 316 316 316 314 311 309 305 301 297 293 290 287 285 283 279 276 274 273 271 270 269 269 268 267 267 266 265 265 267 270 274 278 280 282 283 282 281 280 279 280 279 279 277 276 277 278 278 277 277 276 277 277 277
262 265 266 268 270 272 274 274 275 277 277 275 273 272 273 276 280 284 288 294 301 305 309 312 313 313 312 310 308 305 305 305 304 305 305 304 303 301 300 299 298 295 294 291 289 287 284 281 279 278 276 274 273 272 272 271 271 271 271 270 270 270 270 272 274 277 280 282 283 282 281 280 280 280 278 276 275 276 277 277 275 274 274 274 275
257 260 265 271 275 276 274 274 277 280 282 280 277 275 276 278 282 285 288 291 296 300 304 306 307 308 308 306 304 302 300 301 301 302 303 303 302 299 298 297 297 296 294 293 292 290 288 287 285 284 283 280 278 277 277 276 274 274 274 274 275 275 274 274 274 275 276 278 281 282 283 283 282 281 279 278 276 276 276 276 276 276 275 273 273
263 261 262 266 271 273 272 271 272 275 279 281 281 280 277 277 281 286 289 293 296 298 300 301 303 306 307 306 306 305 303 303 302 301 301 302 302 300 298 296 293 292 291 290 289 288 287 286 285 285 286 285 283 282 282 280 278 277 277 276 275 275 274 274 274 275 274 274 276 279 281 281 282 282 281 279 278 277 276 277 277 279 279 278 277
274 273 273 270 268 264 262 264 266 270 272 273 277 280 280 279 280 283 288 293 296 295 294 296 299 302 303 304 304 304 304 304 303 302 301 300 299 299 297 295 293 290 288 287 287 287 287 286 285 284 284 283 284 284 283 282 280 279 279 278 277 277 276 274 272 272 272 272 272 273 275 277 277 278 279 278 277 276 276 276 277 278 280 280 280
275 279 280 277 268 257 255 259 261 266 270 270 271 272 271 277 284 288 290 292 293 292 291 292 294 295 296 298 298 300 300 301 301 301 301 300 299 297 296 294 293 290 289 288 287 288 290 290 291 290 287 285 285 284 283 283 282 281 280 279 278 277 278 277 276 276 275 274 273 271 273 275 276 277 277 277 276 275 275 274 275 276 277 279 280
273 275 275 274 269 265 268 270 266 268 274 276 275 270 264 270 283 290 292 293 292 291 290 289 290 291 292 292 293 294 295 295 296 297 298 299 299 297 295 294 294 292 290 288 287 288 289 291 293 293 292 291 290 288 285 283 283 282 282 281 279 278 277 277 277 277 278 277 275 273 273 274 275 276 276 277 277 276 275 273 272 271 272 273 274
270 270 270 271 271 273 276 276 271 272 274 274 277 277 271 271 280 287 290 291 290 289 288 288 288 287 288 288 289 290 291 290 291 292 294 296 297 297 296 296 296 296 293 290 290 290 290 291 292 293 293 292 291 290 288 286 284 283 282 281 281 280 279 277 275 275 276 277 276 275 274 275 275 274 274 275 276 276 276 274 273 271 269 268 268
268 269 270 271 273 275 275 274 272 273 274 273 275 276 272 272 278 283 287 287 285 285 286 287 286 285 285 286 286 286 287 288 289 290 291 293 294 295 295 295 296 296 293 290 290 290 291 292 293 294 293 291 289 287 287 288 286 285 283 283 282 282 280 279 277 275 275 275 275 274 273 274 275 274 275 276 276 276 277 277 276 274 272 270 268
272 271 272 273 275 276 276 276 275 274 275 275 276 274 271 272 276 280 283 283 283 283 284 284 284 284 286 286 285 285 286 288 288 289 289 290 291 292 292 292 293 293 289 287 288 289 290 291 292 292 292 291 288 286 286 286 286 285 285 284 284 283 281 280 279 278 277 277 276 274 272 272 272 272 273 274 275 276 278 278 279 279 278 276 274
272 271 271 272 272 272 273 274 276 276 275 275 275 275 273 273 275 277 278 280 280 280 280 282 283 285 287 286 285 285 286 287 287 288 289 290 291 292 292 292 291 289 286 284 286 288 290 290 290 290 289 288 286 285 284 284 285 285 285 284 283 282 281 280 280 279 280 279 278 276 274 272 273 272 271 271 272 273 274 275 276 278 279 279 280
271 271 271 271 271 273 273 275 277 276 275 275 276 276 275 274 274 274 273 274 276 277 278 281 283 284 284 283 284 285 286 287 287 288 289 291 292 293 294 294 294 292 288 286 286 287 288 289 289 289 288 287 286 284 282 282 283 284 284 283 282 281 281 281 280 280 280 279 279 278 277 276 276 274 273 273 273 272 271 272 272 272 273 274 275
271 271 272 274 275 275 276 277 277 276 277 277 278 278 277 276 275 272 268 270 273 275 278 281 282 281 280 280 281 283 284 285 286 288 289 291 293 294 294 293 293 293 292 291 291 290 290 290 290 290 290 288 287 285 283 282 282 282 282 282 281 281 281 281 280 279 279 278 279 279 278 278 278 276 275 275 275 273 272 271 270 270 270 270 270
271 271 273 274 275 276 277 277 276 276 278 279 279 279 278 277 274 268 266 269 273 275 278 279 279 279 279 279 280 281 281 283 284 286 288 290 291 291 290 290 290 291 292 293 291 291 292 293 294 293 291 290 289 287 285 283 282 283 283 282 281 281 281 281 280 279 278 278 278 278 278 278 278 277 276 275 274 273 271 269 268 268 269 269 269
274 274 274 274 274 274 275 275 275 276 278 280 281 281 278 275 271 267 268 271 273 275 277 276 277 278 278 279 280 280 281 282 284 285 287 288 288 288 288 289 290 292 292 291 288 288 291 294 294 293 292 291 291 289 287 285 284 284 284 283 283 283 282 281 281 280 279 278 277 277 277 278 279 278 276 275 273 272 270 268 267 267 267 267 268
278 278 278 277 277 275 273 274 275 277 279 280 279 278 274 272 270 270 272 274 274 275 275 275 276 277 278 279 280 281 282 284 286 287 288 287 286 285 286 288 290 291 290 288 286 287 291 293 293 292 291 291 290 289 287 285 284 283 283 282 283 282 282 281 281 280 280 279 278 278 278 278 278 278 278 277 275 273 272 269 267 266 266 267 267
280 282 283 281 279 277 276 277 278 279 279 278 276 274 272 271 271 273 275 275 275 275 274 275 276 277 279 280 280 281 283 286 288 289 290 289 287 285 287 289 291 291 289 288 287 289 291 292 292 291 290 289 290 289 288 287 285 283 282 281 281 280 280 280 280 279 279 279 279 278 278 277 277 277 278 279 278 276 274 273 271 269 268 268 270
Height
3136 3137 3138 3138 3138 3139 3139 3138 3139 3142 3142 3141 3142 3142 3143 3144 3144 3144 3145 3145 3145 3146 3146 3147 3148 3150 3151 3152 3153 3155 3155 3156 3157 3157 3159 3162 3163 3165 3166 3167 3168 3170 3171 3173 3174 3175 3176 3177 3178 3179 3180 3180 3181 3181 3182 3183 3183 3183 3184 3185 3185 3186 3186 3186 3186 3185 3185 3185 3185 3185 3184 3184 3184 3184 3183 3183 3182 3182 3181 3181 3180 3180 3179 3179 3178
3135 3136 3137 3138 3139 3139 3138 3137 3139 3142 3141 3139 3140 3141 3142 3143 3144 3144 3144 3145 3145 3145 3146 3147 3147 3149 3150 3151 3152 3153 3155 3156 3157 3157 3158 3160 3162 3163 3164 3165 3167 3168 3169 3171 3172 3173 3175 3176 3177 3178 3179 3179 3180 3180 3181 3181 3182 3182 3183 3184 3184 3185 3185 3185 3185 3185 3185 3185 3184 3184 3184 3184 3184 3183 3183 3183 3183 3182 3182 3181 3181 3180 3179 3179 3178
3134 3136 3136 3136 3137 3138 3137 3136 3138 3140 3140 3139 3139 3140 3142 3143 3144 3144 3144 3145 3145 3145 3145 3146 3146 3148 3149 3150 3151 3152 3154 3156 3156 3156 3156 3159 3161 3161 3163 3164 3165 3166 3168 3169 3170 3171 3173 3174 3175 3176 3177 3178 3179 3179 3180 3180 3181 3181 3182 3183 3183 3184 3184 3185 3184 3184 3184 3184 3184 3184 3184 3184 3183 3183 3183 3183 3182 3182 3182 3181 3181 3180 3180 3179 3178
3132 3135 3136 3135 3136 3137 3137 3136 3137 3138 3139 3139 3139 3140 3142 3143 3143 3143 3143 3144 3144 3144 3145 3145 3145 3147 3148 3149 3150 3151 3153 3154 3155 3156 3155 3157 3159 3160 3161 3163 3164 3165 3166 3167 3168 3170 3171 3173 3174 3175 3176 3177 3178 3178 3179 3179 3180 3180 3181 3182 3182 3183 3183 3184 3184 3184 3183 3183 3183 3183 3183 3183 3183 3183 3183 3182 3182 3182 3181 3181 3181 3180 3180 3179 3179
3131 3133 3135 3135 3136 3136 3136 3135 3135 3137 3138 3137 3138 3140 3142 3142 3143 3143 3143 3144 3144 3144 3144 3144 3144 3146 3147 3148 3149 3150 3151 3153 3154 3156 3155 3156 3158 3159 3160 3161 3162 3163 3164 3165 3167 3168 3169 3171 3172 3173 3175 3175 3176 3177 3177 3178 3179 3179 3180 3181 3181 3182 3182 3183 3183 3183 3183 3182 3182 3183 3183 3183 3183 3183 3182 3182 3182 3181 3181 3181 3180 3180 3179 3179 3178
3129 3131 3132 3134 3134 3134 3134 3134 3134 3135 3135 3135 3137 3140 3141 3142 3142 3143 3143 3143 3144 3143 3143 3143 3143 3144 3146 3147 3148 3149 3150 3151 3153 3154 3155 3155 3156 3157 3159 3160 3161 3162 3163 3164 3165 3167 3168 3169 3170 3172 3173 3174 3175 3175 3176 3176 3177 3178 3179 3179 3180 3180 3181 3181 3182 3182 3182 3182 3181 3182 3182 3182 3182 3182 3182 3182 3181 3181 3180 3180 3180 3179 3179 3179 3178
3128 3127 3128 3130 3132 3132 3131 3131 3131 3132 3134 3136 3138 3139 3140 3141 3141 3141 3142 3143 3143 3142 3142 3142 3143 3143 3145 3145 3146 3147 3148 3149 3151 3153 3154 3155 3155 3155 3156 3158 3159 3160 3161 3163 3164 3165 3166 3167 3169 3170 3171 3172 3173 3174 3174 3175 3176 3176 3177 3178 3178 3179 3180 3180 3180 3181 3181 3181 3181 3180 3180 3180 3181 3181 3181 3181 3180 3180 3180 3179 3179 3179 3178 3178 3178
3126 3125 3126 3127 3129 3130 3129 3128 3129 3132 3136 3139 3139 3139 3139 3139 3140 3140 3141 3141 3141 3141 3140 3140 3141 3141 3142 3143 3144 3145 3146 3147 3148 3150 3152 3153 3154 3154 3154 3155 3157 3158 3159 3161 3162 3163 3164 3166 3167 3168 3169 3170 3171 3172 3173 3173 3174 3175 3176 3176 3177 3177 3178 3179 3179 3179 3179 3179 3179 3179 3179 3179 3179 3179 3179 3179 3179 3179 3179 3178 3178 3178 3177 3177 3177
3126 3125 3126 3127 3127 3127 3127 3127 3129 3133 3137 3137 3136 3137 3137 3138 3139 3139 3140 3140 3140 3139 3138 3138 3139 3140 3141 3143 3143 3144 3145 3146 3147 3149 3150 3151 3152 3153 3154 3154 3155 3156 3157 3159 3160 3161 3162 3163 3165 3166 3167 3168 3169 3170 3171 3172 3173 3173 3174 3175 3175 3176 3177 3177 3178 3178 3178 3178 3178 3178 3178 3177 3177 3177 3177 3177 3177 3177 3177 3177 3177 3176 3176 3176 3176
3125 3124 3125 3125 3125 3125 3125 3127 3131 3133 3134 3133 3133 3135 3135 3136 3136 3137 3138 3139 3139 3138 3138 3138 3139 3139 3141 3142 3142 3143 3143 3144 3146 3147 3149 3150 3151 3152 3153 3153 3154 3154 3155 3156 3158 3159 3160 3161 3162 3164 3165 3166 3168 3169 3170 3170 3171 3172 3172 3173 3174 3174 3175 3175 3176 3177 3177 3177 3176 3176 3176 3176 3176 3175 3175 3175 3175 3175 3176 3176 3175 3175 3175 3175 3175
3123 3122 3123 3123 3123 3123 3124 3128 3131 3131 3131 3130 3131 3132 3133 3134 3134 3135 3136 3136 3137 3137 3138 3139 3138 3138 3139 3140 3140 3141 3142 3143 3144 3145 3147 3148 3149 3150 3151 3152 3153 3153 3153 3154 3155 3156 3158 3159 3160 3162 3163 3164 3166 3167 3168 3169 3169 3170 3170 3171 3172 3172 3173 3174 3174 3175 3175 3175 3175 3174 3174 3174 3174 3174 3174 3173 3173 3174 3174 3174 3174 3174 3174 3174 3173
3120 3121 3121 3122 3121 3121 3123 3126 3127 3128 3128 3128 3129 3130 3131 3131 3132 3133 3134 3134 3135 3137 3137 3138 3138 3138 3138 3140 3139 3140 3142 3143 3143 3144 3145 3146 3147 3148 3149 3150 3150 3151 3152 3153 3154 3154 3155 3156 3158 3159 3161 3162 3163 3164 3165 3166 3167 3168 3168 3169 3169 3170 3171 3171 3172 3172 3172 3173 3173 3172 3172 3172 3172 3172 3172 3172 3172 3172 3172 3172 3172 3172 3172 3172 3172
3119 3119 3120 3120 3120 3120 3122 3124 3125 3125 3126 3127 3127 3128 3128 3129 3130 3131 3131 3132 3133 3135 3136 3137 3137 3137 3137 3138 3139 3139 3141 3142 3143 3144 3144 3145 3145 3146 3147 3148 3148 3149 3150 3151 3152 3153 3152 3153 3155 3156 3158 3159 3161 3162 3163 3164 3165 3166 3166 3167 3167 3167 3168 3168 3169 3169 3170 3170 3170 3170 3170 3170 3170 3170 3170 3170 3170 3170 3170 3170 3170 3170 3170 3170 3170
3117 3118 3118 3118 3118 3118 3120 3123 3124 3124 3124 3125 3125 3126 3126 3127 3128 3128 3130 3131 3132 3133 3134 3135 3135 3136 3136 3137 3137 3139 3140 3141 3142 3142 3143 3144 3144 3144 3145 3146 3147 3147 3148 3150 3151 3152 3151 3151 3153 3154 3155 3156 3158 3159 3160 3161 3162 3163 3164 3164 3164 3165 3165 3165 3166 3166 3167 3167 3167 3168 3168 3168 3168 3168 3168 3168 3168 3168 3168 3168 3168 3168 3168 3168 3168
3115 3116 3116 3116 3117 3117 3118 3121 3122 3123 3123 3123 3124 3124 3125 3125 3125 3126 3128 3130 3131 3132 3132 3132 3133 3134 3135 3135 3136 3137 3137 3139 3140 3140 3141 3142 3143 3144 3144 3145 3145 3146 3147 3148 3149 3150 3151 3151 3152 3153 3153 3154 3154 3156 3157 3158 3160 3160 3161 3162 3162 3162 3162 3163 3163 3164 3164 3165 3165 3165 3165 3166 3166 3166 3166 3166 3166 3166 3165 3166 3166 3166 3166 3166 3166
3114 3114 3114 3115 3115 3115 3116 3118 3120 3120 3120 3120 3121 3122 3122 3123 3123 3123 3125 3127 3129 3130 3130 3130 3131 3132 3133 3134 3134 3135 3136 3137 3139 3140 3140 3141 3142 3143 3143 3143 3144 3144 3144 3146 3147 3148 3149 3149 3150 3151 3152 3152 3152 3153 3154 3155 3156 3157 3159 3159 3160 3160 3160 3160 3161 3162 3162 3162 3162 3163 3163 3163 3163 3164 3164 3163 3163 3163 3163 3163 3163 3163 3163 3163 3163
3114 3114 3114 3114 3114 3114 3115 3116 3117 3118 3118 3118 3119 3119 3120 3120 3121 3122 3123 3124 3126 3127 3127 3128 3129 3130 3131 3132 3133 3134 3135 3136 3137 3138 3139 3140 3140 3141 3141 3141 3142 3142 3143 3144 3145 3146 3147 3148 3149 3149 3149 3149 3150 3151 3152 3153 3154 3155 3156 3157 3157 3157 3158 3158 3159 3159 3160 3160 3160 3160 3160 3160 3161 3161 3161 3161 3161 3161 3161 3161 3161 3161 3161 3161 3161
3114 3113 3113 3113 3114 3113 3114 3114 3115 3116 3116 3116 3117 3117 3118 3119 3120 3121 3122 3122 3124 3125 3125 3126 3127 3129 3130 3131 3132 3132 3133 3135 3136 3137 3138 3138 3138 3139 3139 3139 3140 3140 3141 3142 3143 3144 3145 3146 3147 3147 3147 3148 3149 3150 3151 3151 3151 3152 3154 3154 3155 3155 3155 3156 3157 3157 3158 3158 3158 3158 3158 3158 3158 3158 3158 3158 3158 3158 3158 3158 3158 3158 3158 3158 3158
3113 3113 3113 3113 3113 3113 3113 3113 3114 3114 3114 3114 3115 3116 3117 3118 3118 3119 3120 3121 3122 3123 3124 3125 3126 3127 3128 3129 3130 3131 3132 3133 3134 3136 3136 3136 3136 3137 3137 3137 3138 3139 3140 3141 3142 3143 3143 3144 3145 3145 3146 3147 3148 3148 3149 3149 3149 3150 3152 3153 3153 3153 3153 3154 3154 3155 3156 3156 3156 3156 3156 3156 3156 3156 3156 3156 3156 3156 3156 3156 3156 3156 3156 3156 3156
3112 3112 3112 3112 3112 3113 3113 3113 3113 3113 3113 3114 3114 3115 3116 3117 3117 3118 3119 3120 3121 3122 3123 3124 3125 3126 3127 3128 3129 3129 3130 3132 3133 3134 3134 3134 3135 3135 3135 3136 3137 3138 3138 3139 3140 3141 3142 3142 3143 3143 3144 3145 3145 3146 3147 3148 3148 3150 3150 3150 3151 3151 3151 3152 3152 3153 3154 3154 3154 3155 3154 3154 3154 3154 3154 3154 3154 3154 3154 3154 3154 3154 3154 3154 3153
3112 3112 3112 3112 3112 3112 3112 3113 3113 3113 3113 3114 3114 3114 3115 3116 3116 3116 3118 3119 3120 3121 3122 3123 3124 3125 3126 3126 3127 3128 3129 3130 3131 3131 3132 3133 3133 3133 3134 3134 3135 3136 3137 3138 3138 3139 3140 3141 3142 3142 3143 3143 3144 3145 3145 3146 3147 3149 3148 3147 3148 3149 3150 3150 3150 3151 3151 3152 3152 3153 3153 3152 3152 3152 3152 3152 3152 3152 3152 3152 3152 3152 3152 3152 3151
3112 3112 3112 3111 3111 3112 3112 3112 3113 3113 3113 3114 3114 3114 3114 3115 3115 3116 3116 3117 3118 3119 3121 3122 3123 3124 3125 3125 3126 3127 3127 3127 3128 3129 3130 3131 3131 3132 3132 3133 3134 3134 3135 3136 3136 3137 3138 3139 3139 3140 3141 3142 3142 3142 3143 3143 3144 3146 3146 3146 3147 3148 3148 3148 3148 3148 3148 3149 3150 3150 3151 3151 3150 3150 3150 3150 3150 3150 3151 3150 3150 3150 3150 3150 3150
3112 3112 3112 3112 3111 3112 3112 3112 3112 3113 3113 3114 3114 3114 3114 3115 3115 3115 3116 3117 3117 3118 3119 3120 3121 3122 3123 3124 3125 3125 3126 3126 3127 3127 3128 3128 3129 3129 3130 3130 3131 3132 3133 3133 3134 3135 3136 3136 3137 3138 3139 3140 3140 3140 3140 3140 3141 3143 3144 3145 3146 3146 3146 3146 3146 3146 3146 3147 3147 3147 3148 3148 3148 3148 3148 3148 3148 3148 3149 3149 3148 3148 3148 3148 3148
3113 3112 3112 3112 3112 3112 3112 3112 3112 3112 3113 3113 3114 3114 3114 3115 3115 3116 3116 3116 3117 3117 3118 3119 3120 3120 3121 3122 3123 3124 3124 3125 3125 3126 3126 3126 3127 3127 3127 3127 3128 3129 3130 3131 3133 3134 3134 3135 3135 3136 3137 3137 3137 3137 3136 3137 3139 3141 3142 3142 3143 3143 3144 3144 3144 3144 3144 3144 3144 3144 3145 3145 3146 3146 3146 3146 3146 3146 3146 3147 3147 3146 3147 3147 3147
3114 3113 3113 3112 3112 3112 3112 3112 3113 3113 3113 3113 3113 3114 3114 3115 3115 3115 3116 3116 3117 3117 3117 3118 3119 3119 3120 3120 3121 3122 3123 3124 3124 3124 3124 3125 3125 3125 3125 3126 3127 3127 3128 3128 3130 3131 3132 3132 3133 3134 3134 3135 3135 3134 3133 3135 3138 3139 3139 3139 3140 3140 3141 3141 3141 3142 3141 3141 3141 3141 3142 3142 3143 3143 3143 3143 3143 3144 3144 3144 3144 3145 3145 3145 3145
3115 3115 3114 3114 3113 3113 3113 3113 3113 3113 3113 3113 3113 3114 3114 3114 3115 3115 3115 3116 3116 3117 3117 3117 3118 3119 3119 3120 3120 3121 3121 3122 3123 3123 3123 3124 3124 3124 3124 3125 3126 3126 3127 3127 3128 3129 3129 3130 3131 3132 3133 3132 3132 3131 3131 3132 3135 3136 3137 3137 3138 3138 3138 3138 3138 3138 3138 3138 3138 3138 3138 3139 3139 3140 3141 3141 3141 3141 3142 3142 3142 3142 3143 3143 3143
3116 3116 3116 3115 3115 3115 3114 3114 3114 3114 3114 3114 3114 3114 3114 3114 3115 3115 3115 3116 3116 3116 3116 3117 3117 3118 3118 3119 3120 3120 3120 3121 3121 3122 3122 3123 3123 3123 3124 3124 3125 3125 3126 3126 3127 3127 3127 3128 3130 3131 3131 3129 3129 3129 3128 3129 3132 3133 3133 3134 3134 3134 3135 3135 3135 3135 3135 3135 3135 3135 3135 3135 3135 3136 3137 3137 3138 3138 3139 3139 3140 3140 3140 3140 3141
3117 3117 3117 3117 3116 3116 3116 3115 3115 3115 3115 3115 3115 3115 3115 3115 3115 3115 3115 3116 3116 3116 3116 3117 3117 3117 3118 3118 3119 3119 3119 3120 3120 3120 3121 3121 3122 3122 3122 3123 3123 3124 3124 3125 3126 3126 3126 3127 3128 3128 3127 3126 3126 3128 3128 3128 3130 3130 3130 3130 3131 3131 3131 3132 3132 3132 3132 3132 3132 3133 3132 3132 3132 3132 3133 3133 3134 3135 3135 3136 3137 3137 3137 3138 3138
3117 3117 3118 3118 3118 3117 3117 3117 3117 3117 3116 3116 3116 3116 3116 3116 3116 3116 3116 3116 3116 3116 3116 3116 3117 3117 3117 3117 3118 3118 3118 3119 3119 3119 3119 3119 3120 3120 3120 3121 3121 3122 3123 3123 3124 3124 3125 3126 3126 3125 3124 3124 3125 3127 3127 3127 3127 3127 3127 3127 3128 3128 3128 3128 3129 3129 3130 3130 3130 3130 3130 3129 3129 3129 3129 3129 3130 3131 3132 3132 3133 3133 3134 3135 3135
3116 3117 3117 3117 3118 3118 3118 3118 3118 3117 3117 3117 3117 3117 3117 3117 3117 3117 3117 3116 3116 3116 3117 3117 3117 3117 3117 3117 3117 3117 3118 3118 3118 3118 3118 3118 3118 3118 3119 3119 3119 3120 3121 3121 3122 3123 3123 3123 3124 3124 3124 3123 3124 3124 3125 3125 3125 3124 3124 3125 3125 3125 3125 3125 3126 3127 3127 3127 3127 3127 3127 3127 3126 3126 3126 3126 3127 3127 3128 3128 3129 3129 3130 3131 3132
3116 3116 3116 3116 3116 3117 3117 3118 3118 3118 3118 3118 3118 3118 3118 3118 3118 3117 3117 3117 3117 3117 3117 3117 3117 3117 3117 3117 3117 3117 3117 3117 3117 3117 3117 3117 3117 3117 3117 3118 3118 3118 3119 3120 3120 3121 3121 3122 3122 3122 3122 3122 3122 3122 3122 3123 3123 3122 3122 3122 3123 3123 3123 3123 3123 3123 3124 3124 3124 3124 3124 3124 3123 3123 3123 3123 3123 3124 3124 3125 3125 3126 3126 3127 3128
3114 3115 3116 3116 3116 3116 3116 3116 3117 3117 3117 3117 3118 3118 3118 3118 3118 3117 3117 3117 3117 3117 3117 3117 3117 3117 3117 3116 3116 3116 3116 3116 3116 3116 3116 3116 3116 3116 3116 3117 3117 3117 3118 3118 3119 3119 3119 3120 3120 3120 3120 3120 3120 3120 3120 3120 3120 3120 3120 3120 3120 3120 3120 3120 3120 3121 3121 3121 3122 3121 3121 3120 3120 3120 3120 3120 3121 3121 3121 3122 3122 3122 3123 3123 3124
3113 3113 3114 3115 3115 3115 3115 3115 3116 3116 3116 3116 3116 3116 3117 3117 3117 3117 3117 3117 3117 3117 3117 3117 3117 3116 3116 3116 3116 3116 3116 3116 3116 3115 3115 3115 3115 3115 3115 3115 3115 3115 3116 3116 3117 3117 3118 3117 3118 3118 3118 3118 3118 3118 3118 3118 3118 3118 3118 3118 3118 3118 3118 3118 3118 3118 3118 3118 3118 3118 3118 3117 3117 3117 3117 3117 3117 3118 3118 3118 3118 3118 3119 3119 3120
3111 3112 3112 3113 3113 3114 3114 3115 3115 3115 3115 3115 3115 3115 3115 3115 3116 3116 3116 3116 3116 3116 3116 3116 3116 3116 3116 3116 3116 3116 3116 3115 3115 3115 3114 3114 3114 3113 3113 3113 3113 3113 3113 3113 3113 3114 3115 3115 3115 3115 3115 3115 3115 3115 3115 3115 3115 3115 3115 3115 3115 3115 3115 3115 3115 3115 3115 3115 3115 3115 3114 3114 3114 3114 3114 3114 3114 3114 3114 3114 3114 3114 3115 3115 3116
3109 3109 3110 3111 3111 3111 3111 3112 3112 3113 3113 3113 3113 3113 3113 3113 3114 3114 3114 3114 3114 3114 3115 3115 3115 3115 3115 3115 3115 3115 3115 3115 3114 3114 3114 3113 3113 3112 3112 3111 3111 3110 3110 3110 3110 3110 3110 3111 3111 3111 3112 3112 3112 3112 3112 3112 3112 3112 3112 3112 3113 3113 3112 3112 3112 3112 3112 3111 3111 3111 3111 3111 3111 3111 3111 3111 3111 3111 3111 3111 3111 3111 3111 3111 3112
3108 3108 3108 3109 3109 3109 3109 3109 3110 3110 3111 3111 3111 3111 3111 3111 3111 3112 3112 3112 3112 3113 3113 3112 3112 3113 3113 3113 3113 3113 3113 3113 3113 3113 3112 3112 3112 3111 3110 3110 3109 3108 3108 3107 3107 3106 3106 3107 3107 3107 3108 3108 3108 3108 3108 3108 3108 3108 3108 3108 3109 3109 3109 3109 3109 3109 3109 3108 3107 3107 3107 3108 3108 3108 3108 3108 3108 3107 3107 3107 3107 3108 3108 3108 3108
3105 3106 3107 3108 3108 3108 3108 3107 3107 3107 3108 3108 3108 3109 3109 3109 3109 3110 3110 3110 3110 3110 3110 3110 3110 3110 3110 3110 3110 3110 3110 3110 3110 3110 3110 3110 3110 3109 3109 3108 3107 3106 3106 3105 3104 3104 3103 3103 3103 3104 3104 3104 3104 3104 3104 3104 3104 3104 3104 3104 3104 3105 3105 3105 3105 3106 3106 3105 3104 3104 3103 3104 3104 3104 3104 3104 3104 3104 3104 3104 3104 3104 3105 3105 3105
3102 3103 3105 3106 3106 3105 3105 3105 3105 3105 3105 3105 3105 3105 3106 3106 3107 3107 3108 3108 3108 3108 3108 3107 3107 3107 3107 3107 3107 3107 3107 3107 3107 3107 3107 3107 3106 3106 3106 3105 3105 3104 3104 3103 3102 3101 3101 3100 3100 3100 3100 3100 3100 3100 3100 3100 3100 3100 3099 3100 3100 3101 3101 3101 3102 3102 3102 3102 3102 3101 3100 3100 3100 3100 3100 3101 3101 3101 3100 3100 3100 3100 3100 3101 3101
3099 3100 3102 3102 3102 3102 3102 3102 3102 3102 3102 3102 3102 3102 3102 3103 3104 3104 3105 3106 3106 3105 3105 3105 3105 3105 3105 3104 3104 3104 3104 3104 3104 3103 3103 3103 3103 3103 3102 3102 3102 3101 3100 3100 3099 3098 3098 3097 3097 3097 3097 3096 3096 3097 3096 3096 3095 3095 3095 3095 3095 3096 3096 3096 3097 3098 3098 3098 3098 3098 3097 3096 3096 3096 3096 3097 3097 3097 3097 3097 3097 3097 3096 3096 3097
3095 3096 3097 3098 3099 3099 3099 3099 3099 3099 3099 3099 3100 3100 3100 3100 3100 3101 3102 3103 3103 3102 3102 3102 3102 3102 3102 3102 3101 3101 3102 3101 3100 3100 3100 3099 3099 3099 3099 3098 3098 3097 3097 3096 3095 3095 3094 3094 3094 3093 3093 3093 3093 3092 3092 3091 3090 3091 3091 3090 3091 3091 3091 3091 3092 3092 3093 3093 3093 3094 3093 3093 3093 3093 3092 3093 3093 3093 3093 3093 3093 3093 3093 3093 3092
3092 3093 3094 3094 3095 3096 3097 3097 3097 3096 3097 3097 3097 3098 3099 3098 3098 3098 3099 3100 3100 3099 3098 3099 3098 3098 3098 3098 3098 3098 3099 3098 3097 3097 3096 3096 3095 3095 3095 3094 3094 3093 3092 3092 3091 3091 3090 3090 3090 3089 3089 3089 3088 3088 3087 3086 3086 3085 3086 3085 3085 3087 3087 3087 3087 3087 3087 3086 3087 3088 3088 3089 3089 3089 3088 3088 3089 3089 3089 3089 3090 3090 3089 3089 3088
3090 3090 3091 3091 3091 3092 3093 3094 3095 3094 3094 3094 3094 3096 3097 3097 3095 3095 3095 3096 3096 3095 3094 3095 3095 3094 3095 3094 3094 3095 3095 3094 3094 3093 3093 3092 3092 3091 3091 3090 3090 3089 3088 3088 3087 3086 3086 3085 3085 3085 3084 3084 3084 3083 3082 3082 3081 3081 3080 3080 3079 3080 3081 3081 3082 3083 3082 3081 3080 3081 3082 3083 3083 3083 3083 3084 3084 3084 3084 3084 3085 3085 3085 3085 3084
3087 3087 3088 3088 3088 3088 3087 3089 3090 3091 3091 3091 3092 3093 3094 3094 3092 3091 3091 3091 3091 3091 3090 3090 3090 3090 3090 3091 3090 3091 3090 3090 3090 3089 3089 3089 3088 3088 3087 3087 3086 3085 3084 3084 3083 3083 3082 3081 3081 3080 3080 3079 3080 3079 3077 3077 3076 3075 3075 3075 3074 3074 3074 3074 3075 3077 3078 3077 3075 3075 3076 3077 3077 3076 3077 3078 3078 3078 3078 3078 3078 3079 3079 3079 3079
3084 3084 3084 3084 3084 3084 3084 3083 3085 3086 3086 3087 3088 3089 3090 3090 3089 3088 3088 3087 3087 3086 3085 3085 3085 3085 3086 3086 3086 3086 3086 3086 3085 3085 3084 3084 3084 3084 3083 3083 3082 3081 3081 3080 3079 3079 3078 3077 3076 3076 3075 3074 3073 3073 3073 3072 3071 3070 3070 3070 3069 3069 3068 3068 3068 3069 3071 3071 3069 3068 3070 3072 3072 3071 3072 3072 3072 3072 3072 3072 3072 3072 3072 3073 3073
3080 3080 3081 3081 3081 3081 3081 3080 3080 3081 3081 3083 3084 3085 3085 3086 3085 3085 3085 3083 3082 3081 3081 3081 3081 3082 3082 3082 3081 3081 3081 3081 3081 3080 3079 3079 3079 3078 3078 3077 3077 3077 3076 3076 3075 3075 3074 3073 3071 3071 3071 3069 3068 3068 3068 3067 3065 3065 3064 3064 3064 3063 3062 3062 3062 3063 3065 3065 3063 3061 3062 3065 3066 3066 3066 3067 3068 3068 3067 3067 3066 3066 3065 3065 3066
3076 3076 3076 3076 3077 3077 3077 3077 3076 3076 3076 3077 3079 3080 3081 3081 3081 3081 3081 3079 3077 3077 3077 3077 3078 3078 3078 3077 3076 3076 3076 3076 3075 3075 3074 3073 3073 3072 3071 3070 3070 3070 3070 3070 3070 3070 3069 3068 3066 3065 3065 3064 3063 3063 3063 3062 3060 3059 3058 3057 3057 3056 3056 3056 3056 3057 3058 3058 3057 3054 3054 3057 3059 3059 3059 3061 3062 3062 3062 3062 3062 3061 3061 3061 3061
3072 3072 3072 3072 3072 3073 3073 3073 3072 3071 3071 3073 3074 3075 3076 3077 3077 3077 3076 3074 3072 3072 3073 3073 3074 3074 3073 3073 3073 3073 3072 3071 3070 3070 3069 3069 3068 3067 3066 3065 3064 3064 3063 3064 3063 3063 3062 3062 3061 3060 3060 3059 3058 3057 3057 3057 3055 3054 3053 3051 3050 3049 3049 3049 3050 3050 3051 3051 3051 3048 3046 3049 3051 3052 3053 3054 3054 3055 3056 3055 3055 3055 3055 3055 3056
3068 3069 3068 3068 3068 3068 3069 3068 3068 3067 3067 3069 3070 3071 3071 3072 3072 3071 3070 3069 3068 3068 3068 3069 3069 3069 3068 3068 3068 3069 3068 3068 3067 3066 3065 3065 3064 3063 3062 3060 3060 3059 3059 3059 3058 3057 3056 3055 3054 3053 3053 3053 3053 3052 3051 3050 3049 3048 3047 3045 3044 3043 3042 3042 3042 3043 3043 3044 3045 3042 3040 3041 3043 3044 3045 3047 3047 3048 3049 3049 3049 3048 3048 3048 3048
3064 3064 3064 3064 3064 3064 3064 3064 3063 3063 3064 3065 3065 3066 3066 3067 3067 3066 3065 3065 3064 3064 3064 3064 3064 3064 3064 3064 3064 3064 3064 3063 3062 3062 3062 3061 3060 3059 3057 3056 3055 3055 3054 3054 3053 3052 3051 3050 3049 3047 3046 3046 3046 3046 3045 3044 3043 3042 3040 3039 3038 3037 3036 3035 3034 3035 3036 3036 3037 3036 3034 3034 3035 3036 3037 3039 3040 3040 3041 3042 3043 3042 3041 3041 3041
3060 3060 3060 3060 3060 3060 3060 3060 3060 3060 3061 3061 3061 3061 3061 3061 3062 3061 3061 3061 3061 3060 3060 3059 3059 3059 3059 3059 3059 3058 3058 3058 3057 3057 3057 3056 3055 3054 3053 3052 3051 3050 3049 3048 3047 3046 3045 3044 3043 3042 3041 3041 3040 3039 3039 3038 3037 3036 3034 3033 3033 3031 3030 3029 3028 3028 3028 3028 3029 3029 3028 3027 3028 3028 3028 3029 3031 3032 3033 3034 3035 3034 3034 3034 3034
3056 3056 3056 3055 3055 3055 3056 3056 3057 3057 3057 3057 3056 3056 3056 3056 3056 3056 3056 3056 3056 3056 3055 3055 3055 3055 3054 3054 3054 3053 3053 3052 3052 3052 3051 3050 3049 3049 3048 3047 3045 3044 3043 3042 3041 3040 3039 3038 3038 3037 3036 3035 3034 3032 3031 3031 3030 3030 3028 3027 3026 3025 3024 3023 3022 3021 3021 3021 3022 3021 3020 3020 3020 3021 3020 3020 3021 3023 3024 3024 3026 3026 3025 3026 3026